{"data":{"norad_id":59429,"epoch":"2026-09-21T20:17:10.735296Z","epoch_age_seconds":48624,"freshness":"FRESH","line1":"1 59429U 24065J   26264.84526314 -.00001649  00000+0 -37707-4 0  9998","line2":"2 59429  53.1610  91.1312 0001024  96.8852 263.2267 15.34373301138953","mean_motion":15.34373301,"eccentricity":0.0001024,"inclination_deg":53.161,"raan_deg":91.1312,"arg_perigee_deg":96.8852,"mean_anomaly_deg":263.2267,"bstar":-3.7707e-5,"rev_number":13895,"period_min":93.849391087652,"perigee_km":462.08208624568,"apogee_km":463.48310657902,"semimajor_km":6840.9195964123,"source":"CELESTRAK","updated_at":"2026-09-22T09:00:48.939889Z"}}